Location: Vesunti
(61.5000°N, 22.8333°E)
Time: 04:15:39
(UTC+00:00)

PSLV R/B - Pass Details

Date: 17 February 2020
Orbit: 595 x 629 km, 97.9° (Epoch: 09 April)

Event Time Altitude Azimuth Distance (km) Brightness Sun altitude
Rises 02:26:24 0° 18° (NNE) 2,868 7.6 -26.6°
Reaches altitude 10° 02:28:37 10° 22° (NNE) 1,956 6.7 -26.3°
Maximum altitude 02:32:49 59° 102° (ESE) 700 3.9 -25.9°
Enters shadow 02:32:56 58° 112° (ESE) 702 3.9 -25.9°
